Location: El Diablo
(32.4667°N, 116.4500°W)
Time: 01:20:00
(UTC+00:00)

COSMO-SKYMED 1 - Pass Details

Date: 10 September 2024
Orbit: 621 x 623 km, 97.9° (Epoch: 06 October)

Event Time Altitude Azimuth Distance (km) Brightness Sun altitude
Rises 12:53:28 0° 160° (SSE) 2,890 6.1 -7.8°
Reaches altitude 10° 12:55:40 10° 157° (SSE) 1,987 5.3 -7.3°
Maximum altitude 12:59:57 65° 76° (ENE) 686 3.1 -6.5°
Drops below altitude 10° 13:04:15 10° 355° (N) 1,998 5.2 -5.6°
Sets 13:06:27 0° 352° (N) 2,908 6.0 -5.1°
